Location: Orange Harbor Mobile Home Park
(26.6923°N, 81.7937°W)
Time: 08:12:41
(UTC+00:00)

ERS-2 - Pass Details

Date: 19 September 2020
Orbit: 492 x 499 km, 98.6° (Epoch: 29 October)

Event Time Altitude Azimuth Distance (km) Brightness Sun altitude
Rises 10:20:55 0° 188° (S) 2,572 5.6 -12.8°
Reaches altitude 10° 10:23:11 10° 200° (SSW) 1,693 4.5 -12.3°
Maximum altitude 10:26:20 28° 261° (W) 965 3.0 -11.6°
Drops below altitude 10° 10:29:31 10° 321° (NW) 1,702 4.5 -10.9°
Sets 10:31:49 0° 333° (NNW) 2,588 5.6 -10.4°
